Regional Weather Roundup
Issued by NWS Wakefield, VA

Home | Current Version | Previous Version | Graphics & Text | Print | Product List | Glossary On
Versions: 1 2 3 4 5 6 7 8 9 10 11 12 13 14 15 16 17 18 19 20 21 22 23 24 25 26 27 28 29 30 31 32 33 34 35 36 37 38 39 40 41 42 43 44 45 46 47 48 49 50
000
ASUS41 KAKQ 290510
RWRAKQ

REGIONAL WEATHER ROUNDUP
NATIONAL WEATHER SERVICE WAKEFIELD VA
1200 AM EST THU JAN 29 2015

Note: "fair" indicates few or no clouds below 12,000 feet with no
significant weather and/or obstructions to visibility. * = Denotes
station may not report precipitation (e.g., rain,snow,etc.),
thunder or fog.

VAZ042-051-052>054-056-290600-
NORTHERN VIRGINIA

CITY           SKY/WX    TMP DP  RH WIND       PRES   REMARKS
WASH NATIONAL  CLEAR     30   6  36 NW6       30.36S
DULLES         CLEAR     21   7  54 NW3       30.34F
FORT BELVOIR   CLEAR     25   8  48 NW5       30.35F
QUANTICO       CLEAR     25  15  66 NW6       30.37S
FREDERICKSBRG* CLEAR     25  13  60 N3        30.35S
STAFFORD*      CLEAR     23   9  54 CALM      30.38F
WARRENTON      CLEAR     18  17  96 CALM      30.33F
CULPEPER*        N/A     19  12  73 CALM      30.34S
MANASSAS*      CLEAR     16  16 100 CALM      30.35F
LEESBURG*      CLEAR     27  10  50 N5        30.35S
WINCHESTER     PTCLDY    18   9  68 CALM      30.33S
FRONT ROYAL*   FAIR      19  14  79 S3        30.32S
LURAY*         FAIR      21  18  86 CALM      30.31F
$$

VAZ048-049-060>072-079>083-290600-
CENTRAL AND SOUTH CENTRAL VIRGINIA

CITY           SKY/WX    TMP DP  RH WIND       PRES   REMARKS
RICHMOND       CLEAR     27  10  49 N3        30.34F
CHESTERFIELD*  FAIR      21   3  45 N3        30.35S
PETERSBURG*    CLEAR     20  16  84 CALM      30.36S
HANOVER        CLEAR     23  12  62 CALM      30.36F
TAPPAHANNOCK*  CLEAR     25   7  46 CALM      30.35S
QUINTON*       FAIR      27   6  41 CALM      30.35S
CHARLOTTSVILLE CLEAR     23   7  50 CALM      30.32S
GORDONSVILLE*  FAIR      18  14  84 CALM      30.33S
ORANGE*        CLEAR     21  16  79 CALM      30.35S
LOUISA*        CLEAR     19   9  63 CALM      30.32S
BUMPASS*       FAIR      22  11  63 CALM      30.33S
FARMVILLE*     CLEAR     19   9  64 CALM      30.33S
CREWE*         FAIR      22  14  73 CALM      30.33F
FORT PICKETT*  FAIR      23  15  72 CALM      30.33S
CHASE CITY*    FAIR      27  17  65 CALM      30.33S
CLARKSVILLE*   FAIR      25  14  63 CALM      30.33S
SOUTH HILL*    CLEAR     25  14  63 CALM      30.39S
LAWRENCEVILLE* FAIR      26  13  57 CALM      30.34R
EMPORIA*       CLEAR     21  18  86 CALM      30.37S
$$

VAZ088>098-290600-
SOUTHEAST VIRGINIA

CITY           SKY/WX    TMP DP  RH WIND       PRES   REMARKS
NORFOLK        CLEAR     33  12  41 N12       30.33R WCI  24
VIRGINIA BEACH CLEAR     32  14  47 N9        30.32S
NORFOLK NAVAL  CLEAR     34  12  40 N10       30.35R
WEST POINT*    CLEAR     23  14  68 CALM      30.37R
SALUDA*        FAIR      29  12  48 NW6       30.34R
NEWPORT NEWS   CLEAR     31   9  39 N5        30.34R
LANGLEY AFB    CLEAR     29  10  45 NW7       30.34R
FORT EUSTIS    CLEAR     31  15  51 NE6       30.33R
WILLIAMSBURG*    N/A     28  12  50 N5        30.35S
HR EXEC AP*    FAIR      30  10  43 N3        30.36S
FRANKLIN*      CLEAR     28   8  42 N3        30.35S
WAKEFIELD      CLEAR     29   7  39 N3        30.34F
$$

VAZ020-022-025-037-045-290600-
WEST CENTRAL AND SOUTHWEST VIRGINIA

CITY           SKY/WX    TMP DP  RH WIND       PRES   REMARKS
STAUNTON*      PTCLDY    18  12  79 CALM      30.32S
WAYNESBORO*    FAIR      20  10  62 SW5       30.30R
HOT SPRINGS VA CLEAR     24   3  41 SE3       30.15S
LYNCHBURG      CLEAR     22  12  65 CALM      30.32S
DANVILLE       CLEAR     25  15  66 W3        30.33S
SOUTH BOSTON*  FAIR      23  16  74 CALM      30.33S
MARTINSVILLE   CLEAR     21  15  79 CALM      30.35S
ROANOKE        CLEAR     25  13  60 CALM      30.33R
BLACKSBURG     CLEAR     20  12  71 CALM      30.29S
DUBLIN*        CLEAR     26  19  76 CALM      30.27F
MARION*        CLEAR     22  18  84 CALM      30.26F
HILLSVILLE*    CLEAR     27  18  67 S3        30.23F
RICHLANDS*     FAIR      30  15  53 CALM      30.18F
WISE*          CLEAR     32  16  51 SE6       30.18F
ABINGDON*      CLEAR     31  21  66 E8        30.22F
$$

MDZ021>025-VAZ099-100-290600-
SOUTHERN MARYLAND AND THE DELMARVA PENINSULA

CITY           SKY/WX    TMP DP  RH WIND       PRES   REMARKS
PATUXENT RIVER CLEAR     29   9  43 NW10      30.33S WCI  20
BAY BRIDGE APT   N/A     30  10  43 NW10      30.33S WCI  21
LEONARDTOWN    CLEAR     28   5  37 W5        30.34F
DOVER          CLEAR     24   9  54 NW6       30.31R
GEORGETOWN     CLEAR     26   8  46 VRB3      30.31R
EASTON         FAIR      27  16  64 NW3       30.36S
CAMBRIDGE      CLEAR     32  12  43 NW6       30.32S
SALISBURY      CLEAR     27  12  53 NW5       30.31R
OCEAN CITY     CLEAR     26  10  50 NW7       30.30R
WALLOPS ISLAND CLEAR     26  11  52 NW7       30.31S
ACCOMACK*      CLEAR     32  14  47 N8        30.31S
$$

NCZ012>017-030>032-290600-
NORTH CENTRAL AND EASTERN NORTH CAROLINA

CITY           SKY/WX    TMP DP  RH WIND       PRES   REMARKS
ROANOKE RAPIDS FAIR      27  18  69 N3        30.35S
RALEIGH        PTCLDY    26  14  60 CALM      30.33S
ELIZABETH CITY CLEAR     31  14  49 N8        30.34R
AHOSKIE*       CLEAR     23  16  75 CALM      30.35F
EDENTON*       CLEAR     30  14  52 N3        30.34S
CURRITUCK*     CLEAR     29  14  53 CALM      30.34R
KILL DEVIL HLS CLEAR     33  17  52 NW5       30.30S
MANTEO         CLEAR     34  19  55 N9        30.32S
CAPE HATTERAS  CLEAR     36  16  44 MISG      30.31S
TARBORO*       FAIR      23  21  93 CALM      30.36R
GOLDSBORO      CLEAR     26  26  97 CALM      30.32S
WASHINGTON     CLEAR     24  17  76 CALM      30.34S
GREENVILLE     CLEAR     23  23 100 CALM      30.35R
NEW BERN       CLEAR     27  19  72 CALM      30.34S
WILMINGTON     CLEAR     26  23  88 S3        30.34S
$$

VAZ048-290600-
ELSEWHERE

CITY           SKY/WX    TMP DP  RH WIND       PRES   REMARKS
HARRISBURG PA  PTCLDY    15   5  64 NW6       30.32R
BALTIMORE      CLEAR     24   7  48 W3        30.33R
ANNAPOLIS      CLEAR     29   8  41 NW7       30.33S
ANDREWS AFB    NOT AVBL
PHILADELPHIA   CLEAR     28   2  32 VRB6      30.31S
HENDERSON NC   CLEAR     26  16  66 CALM      30.33S
GREENSBORO     CLEAR     29  14  53 CALM      30.31R
ROCKY MOUNT    CLEAR     27  19  72 CALM      30.34S
$$

VAZ100-290600-
MARINE

STATION/POSITION TIME  TEMP    WIND        PRES    WAVE   SWELL
                       AIR SEA DIR/SP/G            HT/PER HT/PER
                 (UTC) (F)     (DEG/KT/KT) (MB)    (FT/S) (FT/S)
BRANDYWINE LGT   0500   32 36  360/ 18/ 21 1026.0R
CAPE MAY NJ      0500   30 35  330/  1/  4 1025.6R
LEWES DE         0500   30 34  320/ 12/ 14 1025.9F
15NM E FENWICK I 0500   33 40              1024.9R   5/ 5
OCEAN-CITY-INLET 0500   29 35  340/  8/ 11 1025.6S
WACHAPREAGUE VA  0500   30 36  340/  3/  6 1026.5R
THOMAS POINT MD  0500   29 36  310/ 12/ 13 1028.0F
COVE POINT MD    0500   31     350/ 16/ 18 1026.8S
SOLOMONS ISLAND  0500      37                N/A
BISHOPS HEAD MD  0500   27 33  330/  7/  8 1026.2F
PINEY POINT MD   0500          350/ 15/ 16   N/A
CAMBRIDGE MD     0500   31 35  320/ 10/ 13 1026.7F
LEWISETTA VA     0500   33 36  340/  9/ 13 1027.0S
RAPPAHANNOCK LGT 0500          340/ 17/ 21 1027.1S
YORK RVR RNG VA  0500   32     330/  9/ 11 1026.7R
YORKTOWN VA      0500   32 39  320/  9/ 11 1027.3R
DOMINION TERM VA 0500   33     330/  1/  3 1027.4S
KIPTOPEKE VA     0500      43   10/  5/  7   N/A
CHES BAY BRIDGE  0500   35 40  340/ 15/ 19 1026.6S
CAPE HENRY VA    0500   35     350/ 16/ 21 1025.6R
CHESAPEAKE LGHT  0400   35     360/ 20/ 22 1026.8R
WILLOUBY STN VA  0500   33     340/ 10/ 12 1027.6R
S CRANEY ISL VA  0500          350/ 11/ 14 1027.2R
CAPE HENRY BUOY  0400      42                N/A     5/ 4   2/11
CAPE CHARLES BUO 0500      41                N/A     4/12   2/12
OFFSHORE WE BUOY 0500      43                N/A     6/ 6   3/12
64NM E OF VA BCH 0500   37 50  360/ 17/ 25 1024.7S   7/ 6   3/12
DUCK PIER NC     0500   36 42  350/ 16/ 19 1025.4F
44100 DUCK FRF   0500      45                N/A     6/13   2/13
44056 DUCK FRF   0500      42                N/A     5/13   2/13
OREGON INLET NC  0500   34 42  320/  8/ 11 1026.4R
HATTERAS NC      0500   39 44  360/ 15/ 19 1026.7R
DIAMOND SHLS NC  0500   42 69  340/ 19/ 23 1025.6R   8/10   7/10
CAPE LOOKOUT NC  0400   39     340/  9/ 12 1026.6R
$$


USA.gov is the U.S. government's official web portal to all federal, state and local government web resources and services.